HAZ1170 ZSJN-ZLIC

Flight info

Callsign HAZ1170
Flight time 1h 44m
Altitude 34100
Route EXUVU5T EXUVU W4 TAMIX B208 AGVUR W87 GODON B215 APOGO W218 TUTGO W220 NIRUV B215 YHD
Aircraft E75L/M-SDE3GILORVW/S

Departure

Time 2026-05-04 03:48
Airport Jinan Yaoqiang International Airport (ZSJN)

Arrival

Time 2026-05-04 05:33
Airport Yinchuan Hedong International Airport (ZLIC)
Time Latitude Longitude Altitude Speed Heading
2026-05-04 03:30 36.85220 117.20880 81 ft 0 kts 270°
2026-05-04 03:39 36.85220 117.20886 81 ft 2 kts 270°
2026-05-04 03:39 36.85220 117.20905 81 ft 2 kts 270°
2026-05-04 03:39 36.85220 117.20924 81 ft 2 kts 270°
2026-05-04 03:40 36.85220 117.20942 81 ft 2 kts 270°
2026-05-04 03:40 36.85220 117.20961 81 ft 2 kts 272°
2026-05-04 03:40 36.85215 117.20977 81 ft 2 kts 316°
2026-05-04 03:40 36.85202 117.20985 81 ft 1 kts 356°
2026-05-04 03:41 36.85198 117.20985 81 ft 0 kts
2026-05-04 03:42 36.85199 117.20985 81 ft 0 kts
2026-05-04 03:42 36.85203 117.20985 81 ft 1 kts
2026-05-04 03:42 36.85219 117.20985 81 ft 2 kts
2026-05-04 03:42 36.85242 117.20985 81 ft 3 kts 360°
2026-05-04 03:43 36.85280 117.21005 81 ft 9 kts 56°
2026-05-04 03:43 36.85316 117.21099 81 ft 12 kts 66°
2026-05-04 03:43 36.85355 117.21203 81 ft 13 kts 65°
2026-05-04 03:43 36.85396 117.21313 81 ft 14 kts 65°
2026-05-04 03:44 36.85457 117.21373 81 ft 12 kts
2026-05-04 03:44 36.85543 117.21375 81 ft 12 kts 358°
2026-05-04 03:44 36.85635 117.21375 81 ft 13 kts
2026-05-04 03:44 36.85733 117.21375 81 ft 15 kts 360°
2026-05-04 03:45 36.85853 117.21375 81 ft 20 kts 359°
2026-05-04 03:45 36.86023 117.21374 81 ft 28 kts 358°
2026-05-04 03:45 36.86235 117.21374 81 ft 29 kts
2026-05-04 03:45 36.86438 117.21375 81 ft 28 kts 360°
2026-05-04 03:46 36.86639 117.21375 81 ft 29 kts 360°
2026-05-04 03:46 36.86843 117.21375 81 ft 26 kts 360°
2026-05-04 03:46 36.87030 117.21375 81 ft 27 kts 359°
2026-05-04 03:46 36.87221 117.21373 81 ft 27 kts 360°
2026-05-04 03:47 36.87344 117.21425 81 ft 17 kts 94°
2026-05-04 03:47 36.87339 117.21574 81 ft 11 kts 104°
2026-05-04 03:47 36.87251 117.21598 81 ft 23 kts 180°
2026-05-04 03:47 36.86951 117.21601 81 ft 69 kts 178°
2026-05-04 03:48 36.86280 117.21601 82 ft 122 kts 179°
2026-05-04 03:48 36.85287 117.21603 223 ft 150 kts 179°
2026-05-04 03:48 36.84193 117.21619 529 ft 166 kts 179°
2026-05-04 03:48 36.83114 117.21215 1080 ft 169 kts 217°
2026-05-04 03:49 36.82406 117.19965 1503 ft 187 kts 247°
2026-05-04 03:49 36.81956 117.18343 1834 ft 215 kts 259°
2026-05-04 03:49 36.81954 117.16447 2081 ft 216 kts 280°
2026-05-04 03:49 36.82392 117.14614 2482 ft 229 kts 287°
2026-05-04 03:50 36.82744 117.12687 3294 ft 231 kts 277°
2026-05-04 03:50 36.82876 117.10684 4052 ft 237 kts 271°
2026-05-04 03:50 36.82878 117.08656 4846 ft 240 kts 269°
2026-05-04 03:50 36.82806 117.06584 5637 ft 236 kts 268°
2026-05-04 03:51 36.82839 117.04536 5808 ft 240 kts 288°
2026-05-04 03:51 36.83800 117.02849 5961 ft 250 kts 324°
2026-05-04 03:51 36.85335 117.01683 6304 ft 265 kts 328°
2026-05-04 03:51 36.86941 117.00525 6893 ft 269 kts 329°
2026-05-04 03:52 36.88547 116.99376 7610 ft 269 kts 329°
2026-05-04 03:52 36.90171 116.98219 8361 ft 268 kts 329°
2026-05-04 03:52 36.91783 116.97072 9075 ft 268 kts 329°
2026-05-04 03:52 36.93391 116.95928 9764 ft 269 kts 330°
2026-05-04 03:53 36.95027 116.94765 10437 ft 272 kts 329°
2026-05-04 03:53 36.96682 116.93587 11017 ft 278 kts 329°
2026-05-04 03:53 36.98391 116.92371 11538 ft 287 kts 330°
2026-05-04 03:53 37.00148 116.91120 12031 ft 296 kts 330°
2026-05-04 03:54 37.01954 116.89833 12555 ft 304 kts 330°
2026-05-04 03:54 37.03789 116.88525 13176 ft 309 kts 330°
2026-05-04 03:54 37.05665 116.87188 13879 ft 311 kts 330°
2026-05-04 03:54 37.07549 116.85844 14617 ft 312 kts 330°
2026-05-04 03:55 37.09421 116.84507 15320 ft 314 kts 330°
2026-05-04 03:55 37.11239 116.83003 15939 ft 318 kts 315°
2026-05-04 03:55 37.12381 116.80621 16525 ft 327 kts 288°
2026-05-04 03:55 37.12477 116.77754 17109 ft 339 kts 261°
2026-05-04 03:56 37.11614 116.75015 17692 ft 347 kts 249°
2026-05-04 03:56 37.10612 116.72253 18272 ft 350 kts 250°
2026-05-04 03:56 37.09634 116.69447 18856 ft 352 kts 250°
2026-05-04 03:56 37.08669 116.66639 19420 ft 355 kts 250°
2026-05-04 03:57 37.07697 116.63795 19971 ft 358 kts 251°
2026-05-04 03:57 37.06717 116.60922 20511 ft 360 kts 251°
2026-05-04 03:57 37.05743 116.58067 21051 ft 362 kts 251°
2026-05-04 03:57 37.04747 116.55148 21582 ft 365 kts 251°
2026-05-04 03:58 37.02752 116.49308 22587 ft 369 kts 251°
2026-05-04 03:58 37.01739 116.46347 23078 ft 372 kts 251°
2026-05-04 03:58 37.00720 116.43372 23548 ft 374 kts 251°
2026-05-04 03:59 36.99695 116.40382 24004 ft 377 kts 251°
2026-05-04 03:59 36.98660 116.37365 24460 ft 379 kts 251°
2026-05-04 03:59 36.97623 116.34348 24914 ft 381 kts 250°
2026-05-04 03:59 36.96576 116.31301 25358 ft 383 kts 250°
2026-05-04 04:00 36.95523 116.28241 25784 ft 385 kts 250°
2026-05-04 04:00 36.94470 116.25185 26205 ft 387 kts 251°
2026-05-04 04:00 36.93398 116.22079 26601 ft 390 kts 251°
2026-05-04 04:00 36.92331 116.18988 26992 ft 392 kts 251°
2026-05-04 04:01 36.91245 116.15844 27363 ft 395 kts 251°
2026-05-04 04:01 36.90154 116.12692 27747 ft 397 kts 251°
2026-05-04 04:01 36.89057 116.09524 28119 ft 399 kts 251°
2026-05-04 04:01 36.87941 116.06306 28472 ft 401 kts 251°
2026-05-04 04:02 36.86843 116.03141 28792 ft 403 kts 251°
2026-05-04 04:02 36.85722 115.99914 29125 ft 405 kts 251°
2026-05-04 04:02 36.84582 115.96639 29453 ft 408 kts 251°
2026-05-04 04:02 36.83448 115.93380 29793 ft 409 kts 251°
2026-05-04 04:03 36.82312 115.90123 30128 ft 411 kts 251°
2026-05-04 04:03 36.81177 115.86869 30437 ft 412 kts 251°
2026-05-04 04:03 36.80018 115.83550 30722 ft 414 kts 251°
2026-05-04 04:03 36.78865 115.80255 31005 ft 416 kts 251°
2026-05-04 04:04 36.77705 115.76945 31270 ft 418 kts 251°
2026-05-04 04:04 36.76543 115.73632 31528 ft 420 kts 251°
2026-05-04 04:04 36.75372 115.70299 31793 ft 422 kts 251°
2026-05-04 04:04 36.74193 115.66946 32092 ft 422 kts 251°
2026-05-04 04:05 36.73025 115.63631 32418 ft 422 kts 250°
2026-05-04 04:05 36.71848 115.60292 32756 ft 421 kts 251°
2026-05-04 04:05 36.70670 115.56953 33098 ft 420 kts 251°
2026-05-04 04:05 36.69494 115.53624 33427 ft 419 kts 251°
2026-05-04 04:06 36.68319 115.50300 33726 ft 419 kts 251°
2026-05-04 04:06 36.67145 115.46984 34028 ft 416 kts 251°
2026-05-04 04:06 36.64791 115.40345 34104 ft 425 kts 250°
2026-05-04 04:07 36.62365 115.33518 34113 ft 439 kts 250°
2026-05-04 04:07 36.59872 115.26512 34109 ft 448 kts 250°
2026-05-04 04:08 36.57344 115.19427 34105 ft 447 kts 250°
2026-05-04 04:08 36.54123 115.12766 34109 ft 455 kts 233°
2026-05-04 04:09 36.49557 115.07249 34110 ft 458 kts 227°
2026-05-04 04:09 36.44939 115.01816 34111 ft 459 kts 227°
2026-05-04 04:10 36.40298 114.96343 34117 ft 459 kts 227°
2026-05-04 04:10 36.35932 114.90634 34119 ft 453 kts 238°
2026-05-04 04:11 36.32709 114.84002 34110 ft 449 kts 243°
2026-05-04 04:11 36.29559 114.77328 34108 ft 451 kts 243°
2026-05-04 04:12 36.26343 114.70639 34110 ft 450 kts 243°
2026-05-04 04:12 36.23107 114.64022 34108 ft 451 kts 243°
2026-05-04 04:13 36.19849 114.57370 34107 ft 450 kts 243°
2026-05-04 04:13 36.16610 114.50771 34097 ft 449 kts 243°
2026-05-04 04:14 36.13354 114.44151 34103 ft 449 kts 243°
2026-05-04 04:14 36.10105 114.37555 34103 ft 450 kts 242°
2026-05-04 04:15 36.06835 114.30931 34112 ft 451 kts 242°
2026-05-04 04:15 36.03587 114.24364 34124 ft 451 kts 242°
2026-05-04 04:16 36.00299 114.17728 34137 ft 450 kts 242°
2026-05-04 04:16 35.97042 114.11169 34133 ft 450 kts 242°
2026-05-04 04:17 35.93756 114.04564 34144 ft 449 kts 242°
2026-05-04 04:17 35.90492 113.98016 34154 ft 449 kts 242°
2026-05-04 04:18 35.87232 113.91488 34150 ft 448 kts 242°
2026-05-04 04:18 35.83947 113.84922 34149 ft 449 kts 242°
2026-05-04 04:19 35.80663 113.78370 34146 ft 449 kts 242°
2026-05-04 04:19 35.77380 113.71835 34159 ft 449 kts 242°
2026-05-04 04:20 35.74112 113.65340 34169 ft 448 kts 242°
2026-05-04 04:20 35.71224 113.58600 34179 ft 443 kts 254°
2026-05-04 04:21 35.70246 113.51222 34199 ft 436 kts 274°
2026-05-04 04:21 35.71386 113.43967 34213 ft 430 kts 293°
2026-05-04 04:22 35.74461 113.37723 34215 ft 430 kts 310°
2026-05-04 04:22 35.78497 113.32338 34219 ft 431 kts 320°
2026-05-04 04:23 35.83696 113.28705 34224 ft 433 kts 340°
2026-05-04 04:23 35.89569 113.26924 34219 ft 434 kts 342°
2026-05-04 04:24 35.95289 113.24543 34216 ft 434 kts 339°
2026-05-04 04:24 36.00928 113.22035 34213 ft 432 kts 339°
2026-05-04 04:25 36.06622 113.19485 34209 ft 432 kts 339°
2026-05-04 04:25 36.12257 113.16956 34201 ft 432 kts 339°
2026-05-04 04:26 36.17950 113.14397 34203 ft 433 kts 339°
2026-05-04 04:26 36.23613 113.11853 34194 ft 433 kts 340°
2026-05-04 04:27 36.29419 113.09915 34194 ft 434 kts 344°
2026-05-04 04:27 36.35245 113.08027 34193 ft 432 kts 344°
2026-05-04 04:28 36.41094 113.06127 34189 ft 433 kts 344°
2026-05-04 04:28 36.46938 113.04225 34186 ft 433 kts 344°
2026-05-04 04:29 36.52734 113.02336 34183 ft 433 kts 344°
2026-05-04 04:29 36.58595 113.00423 34182 ft 433 kts 344°
2026-05-04 04:30 36.64413 112.98521 34182 ft 432 kts 344°
2026-05-04 04:30 36.70226 112.96619 34180 ft 432 kts 344°
2026-05-04 04:31 36.76073 112.94701 34186 ft 432 kts 344°
2026-05-04 04:31 36.81888 112.92791 34185 ft 431 kts 344°
2026-05-04 04:32 36.87691 112.90883 34189 ft 431 kts 344°
2026-05-04 04:32 36.93510 112.88965 34186 ft 432 kts 344°
2026-05-04 04:33 36.99336 112.87042 34192 ft 432 kts 344°
2026-05-04 04:33 37.05131 112.85127 34193 ft 431 kts 343°
2026-05-04 04:34 37.10960 112.83203 34192 ft 431 kts 344°
2026-05-04 04:34 37.16758 112.81287 34203 ft 430 kts 344°
2026-05-04 04:35 37.22558 112.79367 34212 ft 429 kts 344°
2026-05-04 04:35 37.28345 112.77447 34217 ft 429 kts 344°
2026-05-04 04:36 37.34106 112.75534 34215 ft 429 kts 344°
2026-05-04 04:36 37.39880 112.73614 34203 ft 429 kts 343°
2026-05-04 04:37 37.51413 112.69769 34163 ft 427 kts 343°
2026-05-04 04:38 37.57194 112.67836 34154 ft 428 kts 343°
2026-05-04 04:38 37.62929 112.65916 34155 ft 427 kts 344°
2026-05-04 04:39 37.68440 112.63197 34145 ft 426 kts 328°
2026-05-04 04:39 37.72855 112.58306 34143 ft 426 kts 309°
2026-05-04 04:40 37.75993 112.52028 34138 ft 427 kts 294°
2026-05-04 04:40 37.77320 112.44684 34144 ft 434 kts 275°
2026-05-04 04:41 37.77351 112.37031 34167 ft 433 kts 277°
2026-05-04 04:41 37.77980 112.29524 34187 ft 433 kts 279°
2026-05-04 04:42 37.78710 112.21931 34202 ft 434 kts 279°
2026-05-04 04:42 37.79439 112.14379 34208 ft 433 kts 279°
2026-05-04 04:43 37.80163 112.06831 34207 ft 432 kts 279°
2026-05-04 04:43 37.80882 111.99285 34213 ft 432 kts 279°
2026-05-04 04:44 37.81593 111.91779 34208 ft 432 kts 279°
2026-05-04 04:44 37.82305 111.84193 34209 ft 435 kts 279°
2026-05-04 04:45 37.83011 111.76630 34210 ft 434 kts 279°
2026-05-04 04:47 37.85817 111.50170 34207 ft 434 kts 280°
2026-05-04 04:47 37.86494 111.42570 34210 ft 435 kts 279°
2026-05-04 04:48 37.87159 111.34979 34212 ft 435 kts 278°
2026-05-04 04:49 37.88805 111.15971 34198 ft 435 kts 278°
2026-05-04 04:49 37.89456 111.08359 34187 ft 436 kts 278°
2026-05-04 04:50 37.90100 111.00766 34171 ft 436 kts 278°
2026-05-04 04:50 37.90741 110.93147 34162 ft 436 kts 278°
2026-05-04 04:51 37.91377 110.85530 34157 ft 437 kts 279°
2026-05-04 04:51 37.92013 110.77850 34151 ft 438 kts 279°
2026-05-04 04:52 37.92649 110.70185 34146 ft 437 kts 280°
2026-05-04 04:52 37.94413 110.62912 34151 ft 432 kts 299°
2026-05-04 04:53 37.97272 110.56238 34145 ft 430 kts 300°
2026-05-04 04:53 38.00098 110.49546 34142 ft 431 kts 300°
2026-05-04 04:54 38.02910 110.42866 34148 ft 431 kts 300°
2026-05-04 04:54 38.05719 110.36176 34148 ft 432 kts 300°
2026-05-04 04:55 38.08544 110.29433 34154 ft 432 kts 300°
2026-05-04 04:55 38.11360 110.22699 34163 ft 433 kts 299°
2026-05-04 04:56 38.14173 110.15955 34161 ft 432 kts 300°
2026-05-04 04:56 38.16974 110.09226 34160 ft 432 kts 300°
2026-05-04 04:57 38.19782 110.02467 34159 ft 432 kts 300°
2026-05-04 04:57 38.22562 109.95761 34154 ft 431 kts 300°
2026-05-04 04:58 38.25361 109.88995 34147 ft 432 kts 300°
2026-05-04 04:58 38.28164 109.82204 34142 ft 433 kts 300°
2026-05-04 04:59 38.30942 109.75457 34137 ft 433 kts 300°
2026-05-04 04:59 38.33730 109.68675 34139 ft 433 kts 300°
2026-05-04 05:00 38.36520 109.61871 34138 ft 432 kts 300°
2026-05-04 05:01 38.40551 109.51584 34137 ft 432 kts 298°
2026-05-04 05:01 38.43148 109.44733 34137 ft 433 kts 298°
2026-05-04 05:02 38.45779 109.37780 34138 ft 433 kts 298°
2026-05-04 05:02 38.48381 109.30891 34138 ft 433 kts 297°
2026-05-04 05:03 38.50993 109.23959 34142 ft 432 kts 297°
2026-05-04 05:04 38.56200 109.10090 34145 ft 434 kts 297°
2026-05-04 05:04 38.58789 109.03171 34156 ft 433 kts 297°
2026-05-04 05:06 38.69150 108.75323 34156 ft 434 kts 297°
2026-05-04 05:07 38.71759 108.68357 34153 ft 435 kts 298°
2026-05-04 05:07 38.74392 108.61395 34153 ft 434 kts 298°
2026-05-04 05:09 38.86136 108.30132 34143 ft 429 kts 297°
2026-05-04 05:10 38.88713 108.23225 34153 ft 430 kts 297°
2026-05-04 05:10 38.91295 108.16292 34155 ft 431 kts 297°
2026-05-04 05:11 38.93877 108.09341 34160 ft 431 kts 297°
2026-05-04 05:11 38.96460 108.02372 34098 ft 428 kts 297°
2026-05-04 05:12 38.97745 107.98900 33504 ft 434 kts 297°
2026-05-04 05:12 38.99030 107.95423 32950 ft 433 kts 297°
2026-05-04 05:12 39.00277 107.91866 32255 ft 434 kts 295°
2026-05-04 05:12 39.01452 107.88369 31585 ft 430 kts 295°
2026-05-04 05:13 39.02640 107.84843 30898 ft 426 kts 295°
2026-05-04 05:13 39.03812 107.81368 30217 ft 421 kts 295°
2026-05-04 05:13 39.04962 107.77954 29532 ft 416 kts 295°
2026-05-04 05:13 39.06110 107.74542 28843 ft 413 kts 295°
2026-05-04 05:14 39.07223 107.71229 28175 ft 408 kts 295°
2026-05-04 05:14 39.08349 107.67876 27494 ft 403 kts 295°
2026-05-04 05:14 39.09473 107.64608 26796 ft 399 kts 296°
2026-05-04 05:14 39.10625 107.61397 25998 ft 396 kts 296°
2026-05-04 05:15 39.11765 107.58205 25209 ft 390 kts 296°
2026-05-04 05:15 39.12884 107.55063 24771 ft 380 kts 296°
2026-05-04 05:15 39.13974 107.52000 24345 ft 379 kts 296°
2026-05-04 05:15 39.15066 107.48927 23924 ft 381 kts 296°
2026-05-04 05:16 39.15983 107.45724 23483 ft 382 kts 281°
2026-05-04 05:16 39.15877 107.42303 23116 ft 387 kts 259°
2026-05-04 05:16 39.14769 107.39168 22571 ft 389 kts 239°
2026-05-04 05:16 39.13251 107.36340 22113 ft 387 kts 238°
2026-05-04 05:17 39.11702 107.33490 21673 ft 384 kts 237°
2026-05-04 05:17 39.10191 107.30728 21250 ft 381 kts 237°
2026-05-04 05:17 39.08665 107.27945 20831 ft 378 kts 237°
2026-05-04 05:17 39.07159 107.25201 20418 ft 376 kts 237°
2026-05-04 05:18 39.05646 107.22448 19994 ft 374 kts 237°
2026-05-04 05:18 39.04157 107.19742 19587 ft 371 kts 237°
2026-05-04 05:18 39.02673 107.17046 19186 ft 369 kts 237°
2026-05-04 05:18 39.01207 107.14384 18780 ft 368 kts 237°
2026-05-04 05:19 38.99730 107.11706 18443 ft 365 kts 237°
2026-05-04 05:19 38.98259 107.09039 18053 ft 364 kts 236°
2026-05-04 05:19 38.96809 107.06414 17658 ft 362 kts 236°
2026-05-04 05:19 38.95362 107.03796 17260 ft 360 kts 236°
2026-05-04 05:20 38.93923 107.01194 16867 ft 356 kts 236°
2026-05-04 05:20 38.92493 106.98611 16475 ft 354 kts 236°
2026-05-04 05:20 38.91077 106.96056 16085 ft 351 kts 236°
2026-05-04 05:20 38.89682 106.93539 15708 ft 348 kts 236°
2026-05-04 05:21 38.88279 106.91010 15318 ft 345 kts 236°
2026-05-04 05:21 38.86908 106.88540 14940 ft 343 kts 235°
2026-05-04 05:21 38.85532 106.86065 14563 ft 341 kts 235°
2026-05-04 05:21 38.84152 106.83583 14176 ft 338 kts 235°
2026-05-04 05:22 38.82794 106.81143 13807 ft 335 kts 235°
2026-05-04 05:22 38.81437 106.78707 13440 ft 334 kts 235°
2026-05-04 05:22 38.80101 106.76310 13083 ft 332 kts 235°
2026-05-04 05:22 38.78772 106.73927 12725 ft 331 kts 234°
2026-05-04 05:23 38.77362 106.71581 12325 ft 330 kts 223°
2026-05-04 05:23 38.75486 106.69958 12002 ft 320 kts 211°
2026-05-04 05:23 38.73595 106.68591 11637 ft 308 kts 210°
2026-05-04 05:23 38.71760 106.67275 11299 ft 297 kts 210°
2026-05-04 05:24 38.69997 106.66017 10979 ft 287 kts 210°
2026-05-04 05:24 38.68262 106.64780 10664 ft 278 kts 210°
2026-05-04 05:24 38.66609 106.63604 10366 ft 269 kts 210°
2026-05-04 05:24 38.65012 106.62469 10040 ft 257 kts 210°
2026-05-04 05:25 38.63501 106.61398 9785 ft 242 kts 210°
2026-05-04 05:25 38.62057 106.60377 9572 ft 233 kts 210°
2026-05-04 05:25 38.60657 106.59386 9308 ft 230 kts 210°
2026-05-04 05:25 38.59255 106.58411 9061 ft 228 kts 206°
2026-05-04 05:26 38.57822 106.57518 8826 ft 227 kts 208°
2026-05-04 05:26 38.56434 106.56594 8607 ft 225 kts 209°
2026-05-04 05:26 38.55074 106.55655 8362 ft 219 kts 210°
2026-05-04 05:26 38.53776 106.54740 8132 ft 211 kts 210°
2026-05-04 05:27 38.52514 106.53841 7949 ft 197 kts 210°
2026-05-04 05:28 38.45039 106.48473 6142 ft 132 kts 209°
2026-05-04 05:29 38.44263 106.47917 5968 ft 126 kts 209°
2026-05-04 05:29 38.43500 106.47369 5840 ft 127 kts 209°
2026-05-04 05:29 38.42714 106.46806 5698 ft 129 kts 209°
2026-05-04 05:29 38.41929 106.46242 5541 ft 131 kts 209°
2026-05-04 05:31 38.36366 106.42270 4428 ft 130 kts 210°
2026-05-04 05:31 38.35574 106.41698 4212 ft 131 kts 208°
2026-05-04 05:32 38.34782 106.41144 4040 ft 129 kts 209°
2026-05-04 05:32 38.34011 106.40572 3896 ft 130 kts 209°
2026-05-04 05:32 38.33228 106.40020 3765 ft 127 kts 208°
2026-05-04 05:33 38.32111 106.39230 3758 ft 57 kts 210°
2026-05-04 05:33 38.31826 106.39017 3758 ft 39 kts 220°
2026-05-04 05:33 38.31750 106.38875 3758 ft 14 kts 235°
2026-05-04 05:33 38.31692 106.38775 3758 ft 9 kts 265°
2026-05-04 05:34 38.31729 106.38707 3758 ft 9 kts 306°
2026-05-04 05:34 38.31763 106.38633 3758 ft 10 kts 299°
2026-05-04 05:34 38.31803 106.38560 3758 ft 10 kts 326°
2026-05-04 05:34 38.31867 106.38513 3758 ft 10 kts 328°
2026-05-04 05:35 38.31904 106.38441 3758 ft 6 kts 260°
2026-05-04 05:35 38.31898 106.38395 3758 ft 4 kts 261°
2026-05-04 05:35 38.31896 106.38383 3758 ft 0 kts 261°